Location: Asheville, NC
(35.6000°N, 82.5500°W)
Time: 10:39:42
(UTC-04:00)

Vanguard 2 - Pass Details

Date: 12 March 2018
Orbit: 553 x 2939 km, 32.9° (Epoch: 18 June)

Event Time Altitude Azimuth Distance (km) Brightness Sun altitude
Rises 13:47:11 0° 256° (WSW) 6,098 12.3 51.2°
Reaches altitude 10° 13:50:50 10° 256° (WSW) 5,305 12.1 51.2°
Maximum altitude 14:07:51 80° 172° (S) 2,970 11.8 50.7°
Drops below altitude 10° 14:24:48 10° 89° (E) 5,292 11.8 49.9°
Sets 14:28:26 0° 89° (E) 6,083 12.0 49.6°
